Location: Newark
(37.3186°N, 13.6631°E)
Time: 10:51:29
(UTC+00:00)

ISS - Pass Details

Date: 18 November 2019
Orbit: 411 x 421 km, 51.6° (Epoch: 11 December)

Event Time Altitude Azimuth Distance (km) Brightness Sun altitude
Rises 17:22:50 0° 187° (S) 2,339 0.3 -17.8°
Reaches altitude 10° 17:25:40 10° 160° (SSE) 1,485 -1.1 -18.3°
Enters shadow 17:25:46 10° 159° (SSE) 1,464 -1.1 -18.4°
